Regional Weather Roundup
Issued by NWS Upton, NY

Current Version | Previous Version | Text Only | Print | Product List | Glossary On
Versions: 1 2 3 4 5 6 7 8 9 10 11 12 13 14 15 16 17 18 19 20 21 22 23 24 25 26 27 28 29 30 31 32 33 34 35 36 37 38 39 40 41 42 43 44 45 46 47 48 49 50
000 ASUS41 KOKX 082304 RWROKX REGIONAL WEATHER ROUNDUP NATIONAL WEATHER SERVICE NEW YORK NY 600 PM EST MON FEB 08 2016 NOTE: "FAIR" INDICATES FEW OR NO CLOUDS BELOW 12,000 FEET WITH NO SIGNIFICANT WEATHER AND/OR OBSTRUCTIONS TO VISIBILITY. NYZ071-072-176-178-NJZ106-104-090000- NEW YORK CITY METRO AREA CITY SKY/WX TMP DP RH WIND PRES REMARKS CENTRAL PARK CLOUDY 32 21 64 VRB7 29.78R WCI 26 LAGUARDIA APRT FLURRIES 32 23 69 NE9 29.77R WCI 24 KENNEDY INTL FLURRIES 31 24 75 NE8 29.78R WCI 23 NEWARK/LIBERTY FLURRIES 33 23 66 NE6 29.77R WCI 28 BRNX BOT. GARD N/A 32 23 69 NE1 29.78R TETERBORO FLURRIES 32 21 64 CALM 29.76R $$ NYZ177-179-078>081-090000- LONG ISLAND NEW YORK CITY SKY/WX TMP DP RH WIND PRES REMARKS FARMINGDALE FLURRIES 29 23 78 NE6 29.78R WCI 23 ISLIP CLOUDY 27 22 81 N13 29.74R WCI 16 SHIRLEY LGT SNOW 26 22 84 N12G18 29.75S FOG WCI 16 RIVERHEAD N/A 27 21 80 E2 29.73S WESTHAMPTON N/A N/A N/A N/A MISG 29.76R EAST HAMPTON LGT SNOW 25 22 91 N7 29.74R WCI 17 MONTAUK POINT N/A 25 22 88 N13G21 29.76R WCI 14 $$ NYZ052-065-067-090000- HUDSON VALLEY CITY SKY/WX TMP DP RH WIND PRES REMARKS WHITE PLAINS FLURRIES 27 21 78 N7 29.74R WCI 19 NEWBURGH CLOUDY 28 23 80 NE9 29.76R WCI 20 MONTGOMERY CLOUDY 30 20 66 E9 29.76R WCI 22 POUGHKEEPSIE LGT SNOW 29 22 75 N8 29.76R WCI 21 ALBANY LGT SNOW 25 19 78 E6 29.81S WCI 18 $$ NJZ001-105-106-008-010-013-015-019>022-104-090000- NEW JERSEY CITY SKY/WX TMP DP RH WIND PRES REMARKS NEWARK/LIBERTY FLURRIES 33 23 66 NE6 29.77R WCI 28 TETERBORO FLURRIES 32 21 64 CALM 29.76R CALDWELL CLOUDY 33 21 61 E6 29.76R WCI 28 MORRISTOWN CLOUDY 34 23 64 E6 29.76R WCI 29 SOMERVILLE CLOUDY 37 19 48 E6 29.73R WCI 32 SUSSEX CLOUDY 32 14 47 NE7 29.75R WCI 26 ANDOVER N/A 32 12 43 NE7 29.74R WCI 26 TRENTON CLOUDY 36 23 59 SE7 29.74R WCI 30 MILLVILLE CLOUDY 39 29 67 VRB5 29.74R ATLANTIC CITY CLOUDY 35 26 69 E12 29.76R WCI 27 WRIGHTSTOWN CLOUDY 34 29 81 E6 29.73R WCI 29 TOMS RIVER CLOUDY 34 23 64 CALM 29.77R BELMAR CLOUDY 30 19 64 NE8 29.76R WCI 23 $$ PAZ047>061-062-071-090000- EASTERN PENNSYLVANIA CITY SKY/WX TMP DP RH WIND PRES REMARKS PHILADELPHIA CLOUDY 39 25 57 E10 29.75R WCI 32 ALLENTOWN CLOUDY 38 21 50 E7 29.72R WCI 33 SCRANTON CLOUDY 37 18 46 SE9G17 29.66R WCI 30 $$ CTZ002-004>006-009-010-012-RIZ004-006-007-MAZ004-011-015-090000- SOUTHERN NEW ENGLAND IN CT CITY SKY/WX TMP DP RH WIND PRES REMARKS BRADLEY INTL LGT SNOW 23 19 85 N10 29.78R VSB 3/4 WCI 12 HARTFORD LGT SNOW 25 21 85 N12 29.79S VSB 1 WCI 14 DANBURY LGT SNOW 26 19 74 NE8 29.75R WCI 18 WTRBRY/OXFORD LGT SNOW 25 12 58 NE8 29.73R FOG WCI 16 BRIDGEPORT LGT SNOW 27 22 81 NE13 29.76S WCI 16 MERIDEN LGT SNOW 25 20 81 N9 29.76S VSB 3/4 WCI 15 NEW HAVEN LGT SNOW 25 20 81 N14 29.76R WCI 13 CHESTER LGT SNOW 25 21 86 N8 29.74S WCI 16 GROTON LGT SNOW 24 21 88 N10 29.76R FOG WCI 14 WILLIMANTIC LGT SNOW 24 19 81 N7 29.77R WCI 16 IN RI CITY SKY/WX TMP DP RH WIND PRES REMARKS PROVIDENCE LGT SNOW 21 17 84 N16 29.74R VSB 1 WCI 7 BLOCK ISLAND CLOUDY 25 19 80 N17G25 29.72R WCI 11 WESTERLY LGT SNOW 23 19 85 N10 29.75R FOG WCI 12 IN MA CITY SKY/WX TMP DP RH WIND PRES REMARKS BOSTON LGT SNOW 21 16 81 N17 29.76R FOG WCI 7 WORCESTER LGT SNOW 18 14 84 N15G22 29.71R VSB 3/4 WCI 4 WESTFIELD LGT SNOW 23 18 81 N8 29.78R WCI 14 PROVINCETOWN LGT SNOW 31 28 89 N25G36 29.67R FOG WCI 17 NANTUCKET LGT SNOW 34 31 88 N30G38 29.60R VSB 1 WCI 20 $$ ANZ330-335-338-340-345-350-353-355-090000- COASTAL MARINE OBSERVATIONS STATION/POSITION TIME SKY/WX TEMP WIND PRES VSBY WAVE AIR SEA DIR/SP/G HT/PER (UTC) (F) (DEG/KT/KT) (MB) (MI) (FT/S) NY HARB ENTRANCE 2150 31 44 10/ 16/ 19 1006.7 11/13 4S FIRE IS NOT AVBL 20S FIRE ISLAND 2150 30 45 20/ 21/ 25 1005.5 12/14 GREAT SOUTH BAY NOT AVBL 23SW MTP 2250 28 46 360/ 23/ 29 1005.7 12/11 HUDSON CANYON 2150 35 50 1004.5 14/14 KINGS POINT 2200 30 39 60/ 10/ 16 1007.0 EXECUTION ROCKS NOT AVBL CENTRAL LI SOUND 2200 27 360/ 16/ 21 N/A 2/ 3 EASTERN LI SOUND 2200 26 42 10/ 14/ 19 N/A ROBBINS REEF 2200 33 360/ 12/ 14 1006.8 $$ >>>>>>>>>>>>>>>>>>>>>>>>>>>> KEY <<<<<<<<<<<<<<<<<<<<<<<<<<< > < > SKY/WX - SKY CONDITION/PRESENT WEATHER < > TMP - TEMPERATURE IN FAHRENHEIT < > DP - DEWPOINT IN FAHRENHEIT < > RH - RELATIVE HUMIDITY IN PERCENT < > WIND - DIRECTION AND SPEED IN MPH < > PRES - MEAN SEA LEVEL PRESSURE IN INCHES OF HG < > WCI - WIND CHILL INDEX < > VSB - VISIBILITY IN MILES < > HX - HEAT INDEX < > TC - TEMPERATURE IN CELSIUS < > VRB - VARIABLE WIND DIRECTION < > < >>>>>>>>>>>>>>>>>>>>>>>>>>>> KEY <<<<<<<<<<<<<<<<<<<<<<<<<<<

USA.gov is the U.S. government's official web portal to all federal, state and local government web resources and services.